0 HST 1 20580U 90037B 25269.75239279 .00010298 00000-0 37481-3 0 9998 2 20580 28.4680 75.9211 0002700 101.7078 258.3820 15.26513054748215 0 ISS (ZARYA) 1 25544U 98067A 25269.92065904 .00016416 00000-0 30111-3 0 9996 2 25544 51.6332 162.8128 0001049 155.2675 204.8364 15.49415038530943 0 CXO 1 25867U 99040B 25272.57265787 .00001049 00000-0 00000-0 0 9999 2 25867 51.5546 125.3902 8260299 310.4462 0.4233 0.37800873 16335